Stations météo

Publicité
Perigueux, France (7428): Température de l'air & dewpoint: 14.08.2017 19:00:00 - 20.08.2017 19:00:00 (CEST)Perigueux, France (7428): Vitesse du vent & gusts: 14.08.2017 19:00:00 - 20.08.2017 19:00:00 (CEST)Perigueux, France (7428): Direction du vent: 14.08.2017 19:00:00 - 20.08.2017 19:00:00 (CEST)Perigueux, France (7428): reduced air pressure: 14.08.2017 19:00:00 - 20.08.2017 19:00:00 (CEST)Perigueux, France (7428): visibility: 14.08.2017 19:00:00 - 20.08.2017 19:00:00 (CEST)
Date & Time tt [°C] td [°C] ff [km/h] ff [knt] fx [km/h] fx [knt] dd ppp [hPa] vv [km]
20.08.2017 19:00:00 24,4 9,9 8 4 18 10 NE 1023,8 45
20.08.2017 18:00:00 25,1 9,0 9 5 21 11 N 1024,3 60
20.08.2017 17:00:00 25,1 9,4 13 7 29 16 NNW 1024,7 60
20.08.2017 16:00:00 24,5 9,2 8 4 22 12 ENE 1024,8 60
20.08.2017 15:00:00 24,1 8,5 9 5 21 11 N 1025,4 60
20.08.2017 14:00:00 23,2 9,2 5 3 18 10 E 1025,7 60
20.08.2017 13:00:00 22,2 9,0 5 3 16 9 WSW 1026,0 60
20.08.2017 12:00:00 21,3 8,5 8 4 15 8 ENE 1026,5 60
20.08.2017 11:00:00 18,6 12,1 2 1 8 4 ENE 1026,8 60
20.08.2017 10:00:00 14,4 10,0 0 0 4 2 N 1026,8 55
20.08.2017 09:00:00 10,5 8,8 0 0 5 3 N 1027,0 55
20.08.2017 08:00:00 7,2 7,1 2 1 4 2 ESE 1026,6 35
20.08.2017 07:00:00 6,2 6,1 2 1 5 3 ESE 1026,2 19
20.08.2017 06:00:00 6,7 6,6 0 0 4 2 N 1026,0 30
20.08.2017 05:00:00 6,9 6,6 0 0 4 2 N 1025,9 40
20.08.2017 04:00:00 7,5 7,2 2 1 4 2 E 1025,7 35
20.08.2017 03:00:00 7,9 7,5 0 0 2 1 N 1025,7 35
20.08.2017 02:00:00 8,6 8,0 0 0 5 3 N 1025,8 50
20.08.2017 01:00:00 9,4 8,3 2 1 4 2 ESE 1025,6 60
20.08.2017 00:00:00 10,4 8,5 0 0 4 2 N 1025,7 60
19.08.2017 23:00:00 11,6 9,0 2 1 4 2 E 1025,4 60
19.08.2017 22:00:00 13,6 9,2 0 0 5 3 N 1024,7 60
19.08.2017 21:00:00 18,3 9,1 0 0 11 6 N 1023,9 60
19.08.2017 20:00:00 21,0 8,6 8 4 22 12 N 1023,6 60
19.08.2017 19:00:00 21,6 7,0 15 8 22 12 NW 1023,3 60
19.08.2017 18:00:00 22,3 9,1 13 7 26 14 NW 1023,5 60
19.08.2017 17:00:00 22,3 9,1 13 7 29 16 NW 1023,6 60
19.08.2017 16:00:00 21,9 8,4 11 6 29 16 NNW 1023,6 55
19.08.2017 15:00:00 21,6 9,5 11 6 28 15 NNW 1023,8 19
19.08.2017 14:00:00 21,3 8,9 13 7 26 14 NW 1024,0 55
19.08.2017 13:00:00 20,2 9,4 11 6 26 14 NW 1024,2 55
19.08.2017 12:00:00 19,1 9,8 15 8 26 14 NW 1024,4 40
19.08.2017 11:00:00 17,9 11,7 9 5 18 10 NNW 1024,3 35
19.08.2017 10:00:00 14,1 13,6 2 1 5 3 ENE 1024,5 18
19.08.2017 09:00:00 12,0 11,8 4 2 5 3 E 1024,6 0,2
19.08.2017 08:00:00 10,6 10,4 0 0 2 1 N 1024,0 0,1
19.08.2017 07:00:00 10,0 9,8 0 0 4 2 N 1023,8 0,1
19.08.2017 06:00:00 10,2 9,7 0 0 4 2 N 1023,1 0,4
19.08.2017 05:00:00 12,1 11,8 2 1 4 2 ENE 1023,0 0,4
19.08.2017 04:00:00 13,2 12,6 4 2 8 4 WSW 1022,9 19
19.08.2017 03:00:00 15,1 13,8 2 1 5 3 WNW 1022,8 40
19.08.2017 02:00:00 16,4 14,4 2 1 15 8 W 1022,4 50
19.08.2017 01:00:00 17,5 15,1 2 1 13 7 W 1022,3 60
19.08.2017 00:00:00 18,0 15,3 4 2 8 4 W 1022,0 60
18.08.2017 23:00:00 18,0 15,3 4 2 24 13 SW 1021,7 60
18.08.2017 22:00:00 19,0 15,7 11 6 28 15 NW 1021,3 40
18.08.2017 21:00:00 20,3 15,9 5 3 11 6 SSW 1020,6 60
18.08.2017 20:00:00 21,4 15,7 8 4 18 10 WSW 1020,3 60
18.08.2017 19:00:00 22,2 15,3 11 6 22 12 W 1020,2 60
18.08.2017 18:00:00 21,9 15,5 15 8 26 14 W 1020,2 60
18.08.2017 17:00:00 23,0 15,6 16 9 26 14 WNW 1019,8 60
18.08.2017 16:00:00 22,3 16,8 8 4 13 7 W 1019,8 60
18.08.2017 15:00:00 21,5 16,9 5 3 22 12 WSW 1019,6 60
18.08.2017 14:00:00 21,3 18,3 9 5 15 8 WNW 1019,4 55
18.08.2017 13:00:00 21,0 17,8 9 5 22 12 W 1019,2 19
18.08.2017 12:00:00 22,7 16,9 15 8 24 13 WNW 1018,8 60
18.08.2017 11:00:00 22,4 17,3 13 7 22 12 NW 1018,6 60
18.08.2017 10:00:00 20,4 17,6 0 0 5 3 N 1018,4 60
18.08.2017 09:00:00 17,4 17,2 0 0 9 5 N 1018,5 40
18.08.2017 08:00:00 15,3 15,1 0 0 4 2 N 1018,1 2,0
18.08.2017 07:00:00 14,3 14,1 0 0 5 3 N 1017,9 14
18.08.2017 06:00:00 14,6 14,4 2 1 4 2 ESE 1018,2 12
18.08.2017 05:00:00 14,9 14,7 0 0 4 2 N 1018,5 1,5
18.08.2017 04:00:00 15,3 15,1 0 0 8 4 N 1018,7 12
18.08.2017 03:00:00 15,7 15,4 0 0 4 2 N 1018,8 40
18.08.2017 02:00:00 16,1 15,8 0 0 4 2 N 1018,9 4,0
18.08.2017 01:00:00 17,0 16,5 0 0 4 2 N 1018,9 35
18.08.2017 00:00:00 17,6 16,8 0 0 9 5 N 1019,1 40
17.08.2017 23:00:00 18,6 17,1 0 0 4 2 N 1019,3 55
17.08.2017 22:00:00 19,9 17,3 0 0 5 3 N 1019,3 60
17.08.2017 21:00:00 23,5 17,7 0 0 18 10 N 1019,2 60
17.08.2017 20:00:00 26,1 17,7 13 7 18 10 WNW 1019,0 60
17.08.2017 19:00:00 27,4 17,0 9 5 18 10 WNW 1019,0 50
17.08.2017 18:00:00 27,7 16,9 5 3 24 13 W 1019,2 60
17.08.2017 17:00:00 27,1 16,4 9 5 24 13 WNW 1019,8 60
17.08.2017 16:00:00 27,0 14,7 11 6 24 13 W 1020,4 60
17.08.2017 15:00:00 26,7 15,1 13 7 22 12 W 1020,4 60
17.08.2017 14:00:00 25,9 14,7 8 4 22 12 NW 1020,8 60
17.08.2017 13:00:00 24,7 14,8 8 4 16 9 WSW 1021,1 60
17.08.2017 12:00:00 23,5 15,5 5 3 18 10 WNW 1021,7 60
17.08.2017 11:00:00 21,7 16,4 2 1 8 4 ESE 1021,9 50
17.08.2017 10:00:00 16,6 16,4 4 2 5 3 ENE 1022,2 40
17.08.2017 09:00:00 14,1 14,1 2 1 5 3 E 1022,1 0,3
17.08.2017 08:00:00 13,3 13,1 4 2 8 4 ESE 1021,7 0,2
17.08.2017 07:00:00 13,6 13,4 0 0 4 2 N 1021,6 0,1
17.08.2017 06:00:00 13,6 13,4 0 0 4 2 N 1021,4 0,1
17.08.2017 05:00:00 13,7 13,5 0 0 0 0 N 1021,5 0,1
17.08.2017 04:00:00 14,1 13,9 0 0 5 3 N 1021,4 2,9
17.08.2017 03:00:00 14,5 14,3 0 0 2 1 N 1021,6 15
17.08.2017 02:00:00 14,8 14,5 0 0 4 2 N 1021,8 19
17.08.2017 01:00:00 15,7 15,4 0 0 5 3 N 1022,1 7
17.08.2017 00:00:00 16,2 15,6 2 1 9 5 E 1022,6 45
16.08.2017 23:00:00 17,2 16,4 0 0 4 2 N 1022,1 19
16.08.2017 22:00:00 19,3 16,9 2 1 9 5 W 1021,8 60
16.08.2017 21:00:00 22,4 16,9 4 2 11 6 SSW 1021,1 19
16.08.2017 20:00:00 24,7 16,1 5 3 11 6 WSW 1021,1 60
16.08.2017 19:00:00 24,2 16,2 8 4 13 7 W 1020,9 60
16.08.2017 18:00:00 24,1 16,6 8 4 15 8 W 1021,1 60
16.08.2017 17:00:00 24,2 15,9 5 3 16 9 W 1021,1 60
16.08.2017 16:00:00 22,9 16,4 5 3 11 6 W 1021,3 60
16.08.2017 15:00:00 22,9 16,2 8 4 21 11 NW 1021,7 60
16.08.2017 14:00:00 23,3 16,1 4 2 13 7 NW 1021,6 60
16.08.2017 13:00:00 22,5 16,8 8 4 13 7 NNW 1021,9 55
16.08.2017 12:00:00 22,1 17,7 4 2 8 4 W 1021,7 45
16.08.2017 11:00:00 20,0 17,0 4 2 8 4 NW 1021,7 19
16.08.2017 10:00:00 17,6 16,6 0 0 4 2 N 1021,7 50
16.08.2017 09:00:00 16,6 16,4 0 0 4 2 N 1021,5 18
16.08.2017 08:00:00 15,3 15,1 0 0 4 2 N 1021,7 2,5
16.08.2017 07:00:00 14,8 14,6 0 0 4 2 N 1021,4 0,5
16.08.2017 06:00:00 15,3 15,1 2 1 5 3 W 1021,1 16
16.08.2017 05:00:00 15,6 15,4 2 1 5 3 SSW 1021,2 10
16.08.2017 04:00:00 16,6 16,3 0 0 9 5 N 1021,0 16
16.08.2017 03:00:00 18,0 17,8 8 4 9 5 W 1021,4 7
16.08.2017 02:00:00 17,9 17,7 0 0 4 2 N 1021,7 0,1
16.08.2017 01:00:00 18,1 17,9 0 0 4 2 N 1021,8 0,1
16.08.2017 00:00:00 17,8 17,6 0 0 5 3 N 1021,6 0,2
15.08.2017 23:00:00 18,3 18,1 2 1 5 3 NW 1021,5 0,1
15.08.2017 22:00:00 19,0 18,5 0 0 4 2 N 1020,9 3,7
15.08.2017 21:00:00 20,4 19,4 0 0 8 4 N 1020,3 7
15.08.2017 20:00:00 21,0 19,6 4 2 9 5 WNW 1019,9 19
15.08.2017 19:00:00 20,4 19,7 8 4 24 13 W 1019,9 16
15.08.2017 18:00:00 20,1 19,3 5 3 11 6 SW 1020,3 6
15.08.2017 17:00:00 20,6 19,6 4 2 13 7 NW 1019,3 2,2
15.08.2017 16:00:00 20,9 19,6 4 2 16 9 ENE 1019,3 19
15.08.2017 15:00:00 20,8 19,1 8 4 26 14 S 1019,0 19
15.08.2017 14:00:00 21,5 18,7 16 9 31 17 WNW 1020,0 35
15.08.2017 13:00:00 22,1 19,1 5 3 21 11 W 1018,9 35
15.08.2017 12:00:00 22,3 18,9 5 3 18 10 W 1019,2 40
15.08.2017 11:00:00 21,8 19,0 2 1 18 10 SSW 1018,3 35
15.08.2017 10:00:00 21,5 18,7 5 3 16 9 WSW 1018,2 45
15.08.2017 09:00:00 20,9 18,1 11 6 21 11 W 1018,2 45
15.08.2017 08:00:00 - - - - - - - - -
15.08.2017 07:00:00 20,7 15,7 11 6 34 18 SW 1016,9 60
15.08.2017 06:00:00 22,5 14,9 15 8 44 24 SE 1015,3 60
15.08.2017 05:00:00 23,9 14,3 13 7 29 16 S 1015,4 55
15.08.2017 04:00:00 23,4 15,4 5 3 22 12 SSE 1015,0 60
15.08.2017 03:00:00 22,9 15,2 11 6 52 28 S 1015,5 40
15.08.2017 02:00:00 24,5 17,5 11 6 26 14 SW 1016,7 28
15.08.2017 01:00:00 20,8 17,0 8 4 16 9 W 1016,9 60
15.08.2017 00:00:00 19,8 17,0 0 0 5 3 N 1014,7 55
14.08.2017 23:00:00 20,8 17,4 4 2 8 4 E 1014,0 60
14.08.2017 22:00:00 22,4 17,3 4 2 5 3 ESE 1013,4 55
14.08.2017 21:00:00 26,1 17,2 0 0 8 4 N 1012,7 60
14.08.2017 20:00:00 31,7 15,6 5 3 16 9 ESE 1012,2 50
14.08.2017 19:00:00 33,2 14,3 8 4 21 11 SSE 1012,2 60

tt = Température de l'air
td = dewpoint
ff = Vitesse du vent
fx = gusts
dd = Direction du vent
ppp = reduced air pressure
vv = visibility

stations d'obs. à proximité